QPF
0.01 0.02 0.03 0.03 0.03 0.03 0.03 0.02 0.02 0.01 0.01 0.00 0.00 0.01 0.01 0.01 0.01 0.01 0.00 0.00 0.01 0.02 0.02 0.03 0.03 0.03 0.03 0.04 0.05 0.05 0.04 0.03 0.04 0.04 0.04 0.04 0.05 0.06 0.06 0.05 0.05 0.04 0.06
0.01 0.02 0.06 0.05 0.03 0.03 0.03 0.03 0.02 0.02 0.01 0.00 0.00 0.00 0.01 0.01 0.01 0.01 0.00 0.01 0.01 0.02 0.02 0.02 0.03 0.03 0.03 0.03 0.03 0.05 0.06 0.04 0.04 0.05 0.07 0.06 0.05 0.06 0.08 0.08 0.07 0.07 0.08
0.01 0.02 0.04 0.07 0.04 0.03 0.03 0.03 0.02 0.02 0.01 0.00 0.00 0.00 0.01 0.01 0.01 0.02 0.01 0.01 0.01 0.01 0.02 0.02 0.02 0.03 0.03 0.03 0.04 0.05 0.05 0.05 0.04 0.06 0.07 0.04 0.04 0.07 0.08 0.10 0.11 0.13 0.11
0.01 0.01 0.02 0.04 0.05 0.04 0.03 0.03 0.02 0.01 0.01 0.00 0.00 0.00 0.01 0.01 0.02 0.02 0.02 0.01 0.01 0.01 0.01 0.01 0.01 0.02 0.03 0.03 0.04 0.05 0.05 0.04 0.05 0.06 0.05 0.03 0.03 0.05 0.08 0.10 0.11 0.15 0.11
0.00 0.01 0.01 0.02 0.03 0.05 0.05 0.03 0.02 0.01 0.01 0.01 0.00 0.01 0.01 0.01 0.01 0.01 0.02 0.02 0.01 0.01 0.01 0.01 0.01 0.01 0.02 0.02 0.03 0.04 0.05 0.05 0.06 0.06 0.04 0.03 0.03 0.04 0.06 0.07 0.09 0.14 0.10
0.01 0.01 0.02 0.01 0.02 0.03 0.05 0.04 0.02 0.01 0.01 0.01 0.01 0.01 0.01 0.01 0.01 0.01 0.02 0.03 0.03 0.02 0.02 0.01 0.01 0.02 0.02 0.02 0.03 0.04 0.04 0.05 0.06 0.05 0.04 0.04 0.03 0.03 0.05 0.05 0.07 0.11 0.10
0.01 0.01 0.02 0.01 0.02 0.03 0.07 0.04 0.02 0.02 0.01 0.01 0.01 0.01 0.01 0.01 0.01 0.01 0.02 0.03 0.04 0.03 0.02 0.02 0.02 0.02 0.02 0.02 0.03 0.04 0.04 0.05 0.04 0.05 0.05 0.04 0.04 0.04 0.06 0.07 0.08 0.09 0.10
0.00 0.02 0.03 0.02 0.02 0.03 0.07 0.04 0.02 0.02 0.02 0.01 0.01 0.01 0.01 0.01 0.01 0.02 0.03 0.04 0.04 0.03 0.03 0.02 0.03 0.03 0.03 0.03 0.03 0.03 0.04 0.03 0.02 0.03 0.05 0.04 0.04 0.05 0.08 0.09 0.08 0.09 0.10
0.00 0.01 0.04 0.04 0.03 0.03 0.07 0.04 0.02 0.02 0.02 0.02 0.01 0.01 0.02 0.02 0.01 0.02 0.04 0.05 0.04 0.04 0.03 0.03 0.03 0.03 0.03 0.03 0.03 0.03 0.03 0.03 0.01 0.01 0.03 0.04 0.05 0.06 0.07 0.08 0.08 0.10 0.11
0.01 0.01 0.03 0.05 0.06 0.04 0.05 0.04 0.03 0.03 0.02 0.01 0.02 0.02 0.02 0.02 0.02 0.03 0.03 0.04 0.03 0.06 0.05 0.03 0.03 0.04 0.04 0.05 0.04 0.04 0.04 0.03 0.02 0.02 0.02 0.03 0.04 0.05 0.07 0.07 0.08 0.10 0.10
0.02 0.02 0.02 0.05 0.08 0.04 0.03 0.03 0.03 0.03 0.02 0.02 0.02 0.02 0.03 0.03 0.02 0.02 0.02 0.03 0.03 0.05 0.08 0.05 0.05 0.05 0.05 0.04 0.05 0.06 0.06 0.04 0.03 0.02 0.02 0.01 0.03 0.04 0.07 0.08 0.09 0.10 0.09
0.03 0.03 0.02 0.03 0.08 0.07 0.03 0.03 0.04 0.04 0.02 0.02 0.02 0.02 0.02 0.02 0.03 0.03 0.03 0.03 0.03 0.04 0.08 0.07 0.05 0.04 0.04 0.02 0.03 0.05 0.05 0.04 0.03 0.02 0.02 0.02 0.03 0.04 0.07 0.09 0.11 0.11 0.10
0.02 0.04 0.05 0.05 0.07 0.08 0.06 0.05 0.05 0.05 0.04 0.03 0.03 0.03 0.02 0.02 0.02 0.03 0.04 0.04 0.04 0.04 0.05 0.06 0.05 0.03 0.02 0.02 0.02 0.03 0.03 0.02 0.02 0.02 0.01 0.01 0.03 0.06 0.08 0.09 0.10 0.11 0.11
0.02 0.04 0.04 0.06 0.07 0.07 0.08 0.08 0.08 0.09 0.08 0.06 0.05 0.05 0.05 0.04 0.03 0.04 0.04 0.05 0.05 0.05 0.05 0.06 0.06 0.04 0.03 0.03 0.02 0.02 0.02 0.01 0.01 0.01 0.01 0.01 0.03 0.05 0.07 0.08 0.08 0.09 0.09
0.05 0.03 0.03 0.05 0.06 0.07 0.08 0.08 0.08 0.10 0.10 0.09 0.08 0.07 0.07 0.06 0.06 0.06 0.07 0.08 0.08 0.07 0.07 0.08 0.07 0.05 0.04 0.03 0.02 0.02 0.02 0.02 0.01 0.01 0.02 0.02 0.03 0.04 0.06 0.08 0.08 0.08 0.08
0.06 0.05 0.04 0.04 0.05 0.06 0.07 0.07 0.08 0.08 0.08 0.08 0.10 0.09 0.08 0.08 0.08 0.07 0.08 0.09 0.09 0.09 0.08 0.09 0.09 0.07 0.05 0.04 0.03 0.02 0.02 0.02 0.02 0.01 0.01 0.02 0.03 0.04 0.05 0.07 0.08 0.08 0.08
0.05 0.05 0.05 0.05 0.06 0.07 0.07 0.07 0.08 0.07 0.06 0.06 0.07 0.07 0.06 0.06 0.07 0.08 0.10 0.11 0.10 0.11 0.12 0.12 0.11 0.10 0.07 0.05 0.04 0.03 0.02 0.02 0.02 0.03 0.02 0.02 0.02 0.03 0.04 0.05 0.06 0.07 0.08
0.05 0.04 0.04 0.04 0.06 0.07 0.07 0.09 0.09 0.09 0.07 0.07 0.06 0.06 0.07 0.08 0.08 0.07 0.07 0.09 0.09 0.08 0.10 0.13 0.13 0.10 0.08 0.06 0.04 0.03 0.02 0.01 0.02 0.03 0.03 0.02 0.02 0.01 0.02 0.03 0.04 0.05 0.06
0.05 0.04 0.04 0.05 0.05 0.07 0.10 0.11 0.10 0.10 0.09 0.09 0.07 0.05 0.07 0.08 0.09 0.11 0.10 0.07 0.07 0.07 0.06 0.08 0.11 0.10 0.08 0.06 0.05 0.03 0.02 0.01 0.02 0.01 0.01 0.01 0.01 0.01 0.01 0.02 0.03 0.03 0.05
0.04 0.03 0.05 0.05 0.05 0.06 0.07 0.09 0.09 0.08 0.08 0.08 0.08 0.07 0.08 0.10 0.09 0.10 0.13 0.13 0.09 0.07 0.06 0.06 0.07 0.07 0.07 0.06 0.05 0.04 0.03 0.02 0.02 0.02 0.01 0.01 0.01 0.02 0.02 0.02 0.02 0.02 0.04
0.02 0.03 0.02 0.03 0.04 0.05 0.04 0.04 0.06 0.06 0.06 0.06 0.06 0.07 0.08 0.09 0.11 0.09 0.07 0.10 0.11 0.09 0.07 0.06 0.07 0.07 0.06 0.07 0.08 0.06 0.05 0.04 0.04 0.02 0.02 0.02 0.02 0.02 0.02 0.02 0.02 0.03 0.03
0.02 0.02 0.02 0.02 0.03 0.03 0.03 0.03 0.03 0.04 0.04 0.05 0.05 0.06 0.07 0.09 0.09 0.11 0.09 0.06 0.07 0.08 0.07 0.07 0.08 0.08 0.07 0.08 0.08 0.06 0.04 0.04 0.03 0.02 0.03 0.03 0.03 0.04 0.03 0.02 0.02 0.02 0.02
0.01 0.01 0.01 0.01 0.01 0.02 0.03 0.02 0.02 0.03 0.03 0.03 0.03 0.04 0.05 0.07 0.06 0.06 0.06 0.07 0.08 0.08 0.08 0.08 0.07 0.08 0.08 0.07 0.07 0.06 0.04 0.02 0.02 0.02 0.03 0.04 0.03 0.03 0.03 0.03 0.02 0.02 0.03
0.01 0.00 0.01 0.01 0.01 0.02 0.02 0.02 0.02 0.03 0.04 0.03 0.04 0.04 0.04 0.05 0.06 0.05 0.04 0.04 0.06 0.08 0.08 0.08 0.07 0.07 0.08 0.08 0.07 0.06 0.04 0.03 0.03 0.04 0.05 0.04 0.04 0.03 0.02 0.02 0.02 0.02 0.02
0.01 0.01 0.01 0.01 0.01 0.01 0.01 0.02 0.02 0.02 0.02 0.02 0.03 0.04 0.04 0.04 0.05 0.05 0.04 0.04 0.05 0.06 0.08 0.09 0.09 0.09 0.08 0.07 0.07 0.07 0.05 0.04 0.03 0.02 0.03 0.04 0.04 0.03 0.02 0.02 0.02 0.01 0.01
0.01 0.01 0.01 0.01 0.01 0.01 0.02 0.02 0.01 0.01 0.01 0.01 0.01 0.02 0.02 0.04 0.05 0.07 0.06 0.05 0.05 0.05 0.05 0.08 0.09 0.08 0.08 0.07 0.06 0.06 0.06 0.04 0.02 0.02 0.02 0.03 0.04 0.04 0.04 0.03 0.03 0.02 0.01
MSLP
1010.22 1009.54 1009.08 1008.86 1008.87 1009.04 1009.30 1009.56 1009.77 1009.89 1009.94 1009.95 1009.97 1010.05 1010.24 1010.53 1010.90 1011.33 1011.76 1012.16 1012.52 1012.83 1013.10 1013.37 1013.66 1014.00 1014.38 1014.80 1015.23 1015.64 1016.00 1016.30 1016.52 1016.68 1016.78 1016.85 1016.91 1016.98 1017.04 1017.11 1017.18 1017.24 1017.31
1010.33 1009.68 1009.23 1009.02 1009.02 1009.19 1009.43 1009.69 1009.89 1010.01 1010.07 1010.09 1010.14 1010.25 1010.45 1010.75 1011.13 1011.55 1011.97 1012.35 1012.69 1012.98 1013.24 1013.50 1013.78 1014.11 1014.49 1014.90 1015.31 1015.71 1016.06 1016.35 1016.57 1016.73 1016.84 1016.93 1017.00 1017.08 1017.15 1017.24 1017.31 1017.39 1017.47
1010.31 1009.71 1009.30 1009.12 1009.14 1009.31 1009.56 1009.80 1010.00 1010.13 1010.20 1010.24 1010.31 1010.44 1010.65 1010.95 1011.32 1011.71 1012.09 1012.44 1012.75 1013.01 1013.26 1013.51 1013.80 1014.13 1014.50 1014.90 1015.30 1015.69 1016.03 1016.31 1016.54 1016.71 1016.84 1016.95 1017.04 1017.14 1017.23 1017.32 1017.42 1017.52 1017.62
1010.21 1009.69 1009.34 1009.21 1009.26 1009.45 1009.69 1009.93 1010.12 1010.25 1010.32 1010.37 1010.45 1010.59 1010.81 1011.10 1011.43 1011.79 1012.13 1012.44 1012.72 1012.96 1013.20 1013.45 1013.74 1014.08 1014.46 1014.85 1015.25 1015.63 1015.96 1016.25 1016.48 1016.67 1016.82 1016.95 1017.07 1017.18 1017.29 1017.40 1017.51 1017.63 1017.76
1010.09 1009.67 1009.42 1009.35 1009.45 1009.64 1009.88 1010.09 1010.25 1010.35 1010.41 1010.46 1010.54 1010.68 1010.90 1011.17 1011.49 1011.81 1012.11 1012.39 1012.64 1012.87 1013.11 1013.38 1013.69 1014.04 1014.42 1014.82 1015.22 1015.59 1015.92 1016.20 1016.45 1016.65 1016.83 1016.99 1017.13 1017.26 1017.38 1017.50 1017.62 1017.75 1017.90
1010.05 1009.74 1009.58 1009.59 1009.72 1009.91 1010.12 1010.28 1010.39 1010.44 1010.46 1010.50 1010.57 1010.72 1010.93 1011.19 1011.49 1011.79 1012.07 1012.32 1012.56 1012.80 1013.05 1013.34 1013.67 1014.04 1014.44 1014.84 1015.23 1015.59 1015.92 1016.21 1016.46 1016.68 1016.88 1017.06 1017.22 1017.37 1017.50 1017.61 1017.73 1017.87 1018.02
1010.11 1009.92 1009.86 1009.93 1010.08 1010.25 1010.40 1010.49 1010.52 1010.51 1010.48 1010.48 1010.55 1010.69 1010.90 1011.16 1011.46 1011.74 1012.01 1012.27 1012.51 1012.76 1013.03 1013.35 1013.71 1014.11 1014.52 1014.92 1015.30 1015.65 1015.96 1016.25 1016.51 1016.75 1016.97 1017.17 1017.35 1017.51 1017.64 1017.75 1017.86 1017.98 1018.14
1010.30 1010.21 1010.23 1010.34 1010.49 1010.62 1010.70 1010.70 1010.63 1010.54 1010.45 1010.42 1010.48 1010.62 1010.84 1011.11 1011.40 1011.69 1011.96 1012.21 1012.47 1012.74 1013.04 1013.39 1013.79 1014.20 1014.62 1015.02 1015.39 1015.73 1016.03 1016.30 1016.56 1016.81 1017.06 1017.29 1017.49 1017.65 1017.78 1017.89 1017.98 1018.09 1018.23
1010.56 1010.56 1010.65 1010.78 1010.91 1010.98 1010.97 1010.87 1010.71 1010.53 1010.39 1010.34 1010.39 1010.53 1010.77 1011.05 1011.34 1011.63 1011.89 1012.15 1012.41 1012.70 1013.03 1013.41 1013.83 1014.27 1014.70 1015.10 1015.46 1015.77 1016.06 1016.32 1016.58 1016.85 1017.11 1017.35 1017.57 1017.75 1017.89 1017.99 1018.07 1018.16 1018.28
1010.84 1010.91 1011.04 1011.18 1011.27 1011.27 1011.17 1010.98 1010.73 1010.50 1010.33 1010.25 1010.30 1010.46 1010.70 1010.98 1011.27 1011.54 1011.79 1012.04 1012.29 1012.59 1012.94 1013.34 1013.79 1014.25 1014.69 1015.09 1015.45 1015.75 1016.02 1016.28 1016.53 1016.80 1017.07 1017.34 1017.58 1017.78 1017.93 1018.03 1018.11 1018.18 1018.29
1011.05 1011.18 1011.33 1011.46 1011.51 1011.45 1011.28 1011.02 1010.72 1010.45 1010.27 1010.20 1010.25 1010.42 1010.66 1010.93 1011.19 1011.43 1011.65 1011.86 1012.09 1012.38 1012.74 1013.16 1013.63 1014.11 1014.57 1014.99 1015.35 1015.65 1015.91 1016.16 1016.41 1016.68 1016.96 1017.24 1017.50 1017.72 1017.88 1018.00 1018.08 1018.16 1018.27
1011.17 1011.33 1011.50 1011.61 1011.62 1011.52 1011.30 1011.00 1010.69 1010.42 1010.24 1010.19 1010.26 1010.43 1010.65 1010.89 1011.11 1011.30 1011.46 1011.62 1011.81 1012.08 1012.43 1012.86 1013.35 1013.86 1014.35 1014.79 1015.17 1015.48 1015.75 1015.99 1016.23 1016.49 1016.77 1017.05 1017.32 1017.56 1017.75 1017.90 1018.01 1018.10 1018.22
1011.17 1011.36 1011.52 1011.62 1011.61 1011.48 1011.24 1010.95 1010.66 1010.41 1010.27 1010.24 1010.33 1010.49 1010.69 1010.88 1011.04 1011.15 1011.24 1011.33 1011.48 1011.72 1012.05 1012.49 1013.00 1013.54 1014.07 1014.55 1014.96 1015.29 1015.57 1015.80 1016.04 1016.28 1016.54 1016.82 1017.09 1017.34 1017.56 1017.73 1017.88 1018.01 1018.15
1011.08 1011.28 1011.44 1011.52 1011.49 1011.36 1011.15 1010.89 1010.63 1010.44 1010.34 1010.35 1010.44 1010.59 1010.75 1010.88 1010.97 1011.00 1011.02 1011.05 1011.15 1011.35 1011.67 1012.11 1012.64 1013.22 1013.79 1014.32 1014.76 1015.13 1015.42 1015.66 1015.87 1016.09 1016.33 1016.58 1016.83 1017.08 1017.31 1017.52 1017.71 1017.88 1018.06
1010.94 1011.13 1011.27 1011.33 1011.31 1011.20 1011.02 1010.82 1010.63 1010.49 1010.44 1010.47 1010.57 1010.69 1010.81 1010.88 1010.90 1010.86 1010.82 1010.79 1010.85 1011.03 1011.34 1011.78 1012.33 1012.94 1013.56 1014.13 1014.62 1015.02 1015.34 1015.58 1015.78 1015.96 1016.15 1016.36 1016.58 1016.81 1017.05 1017.28 1017.50 1017.72 1017.94
1010.78 1010.94 1011.05 1011.10 1011.08 1011.00 1010.87 1010.74 1010.62 1010.54 1010.53 1010.57 1010.66 1010.75 1010.82 1010.84 1010.80 1010.73 1010.64 1010.60 1010.64 1010.80 1011.10 1011.55 1012.11 1012.75 1013.39 1014.01 1014.54 1014.98 1015.32 1015.56 1015.74 1015.89 1016.03 1016.17 1016.35 1016.55 1016.77 1017.01 1017.26 1017.51 1017.77
1010.62 1010.72 1010.79 1010.82 1010.81 1010.77 1010.70 1010.62 1010.57 1010.54 1010.55 1010.60 1010.66 1010.71 1010.74 1010.73 1010.67 1010.58 1010.49 1010.45 1010.50 1010.66 1010.97 1011.41 1011.98 1012.62 1013.29 1013.93 1014.50 1014.97 1015.33 1015.58 1015.75 1015.86 1015.94 1016.03 1016.14 1016.30 1016.49 1016.72 1016.98 1017.26 1017.54
1010.46 1010.49 1010.50 1010.51 1010.50 1010.49 1010.47 1010.45 1010.44 1010.45 1010.47 1010.50 1010.53 1010.55 1010.55 1010.52 1010.46 1010.40 1010.35 1010.34 1010.41 1010.59 1010.90 1011.34 1011.89 1012.52 1013.19 1013.84 1014.44 1014.93 1015.32 1015.58 1015.75 1015.83 1015.87 1015.90 1015.96 1016.06 1016.21 1016.42 1016.68 1016.96 1017.25
1010.26 1010.21 1010.16 1010.14 1010.13 1010.14 1010.17 1010.20 1010.22 1010.24 1010.26 1010.26 1010.26 1010.25 1010.23 1010.21 1010.19 1010.17 1010.18 1010.23 1010.35 1010.55 1010.86 1011.28 1011.80 1012.40 1013.05 1013.70 1014.30 1014.83 1015.24 1015.53 1015.70 1015.78 1015.79 1015.78 1015.79 1015.83 1015.94 1016.12 1016.36 1016.63 1016.92
1010.02 1009.88 1009.77 1009.71 1009.70 1009.73 1009.79 1009.85 1009.90 1009.93 1009.92 1009.90 1009.87 1009.83 1009.82 1009.82 1009.84 1009.90 1009.98 1010.10 1010.26 1010.49 1010.79 1011.18 1011.66 1012.21 1012.83 1013.46 1014.07 1014.61 1015.06 1015.39 1015.60 1015.69 1015.70 1015.67 1015.64 1015.64 1015.71 1015.85 1016.06 1016.31 1016.58
1009.73 1009.49 1009.32 1009.23 1009.21 1009.26 1009.34 1009.43 1009.49 1009.52 1009.50 1009.45 1009.39 1009.35 1009.34 1009.38 1009.46 1009.59 1009.74 1009.93 1010.14 1010.38 1010.66 1011.01 1011.43 1011.93 1012.50 1013.11 1013.72 1014.29 1014.79 1015.17 1015.42 1015.55 1015.59 1015.56 1015.52 1015.50 1015.54 1015.65 1015.82 1016.04 1016.27
1009.38 1009.07 1008.84 1008.72 1008.69 1008.75 1008.85 1008.95 1009.02 1009.05 1009.02 1008.95 1008.89 1008.85 1008.86 1008.93 1009.07 1009.26 1009.49 1009.72 1009.96 1010.20 1010.46 1010.75 1011.11 1011.56 1012.08 1012.67 1013.29 1013.89 1014.44 1014.89 1015.21 1015.41 1015.49 1015.49 1015.46 1015.44 1015.46 1015.54 1015.68 1015.86 1016.06
1009.00 1008.64 1008.36 1008.20 1008.16 1008.22 1008.33 1008.44 1008.52 1008.55 1008.52 1008.46 1008.40 1008.37 1008.41 1008.52 1008.71 1008.95 1009.22 1009.48 1009.73 1009.95 1010.17 1010.42 1010.72 1011.11 1011.60 1012.17 1012.81 1013.45 1014.06 1014.59 1014.99 1015.26 1015.41 1015.47 1015.47 1015.47 1015.49 1015.56 1015.67 1015.81 1015.97
1008.63 1008.22 1007.90 1007.71 1007.65 1007.69 1007.79 1007.91 1008.00 1008.04 1008.02 1007.98 1007.94 1007.94 1008.01 1008.16 1008.38 1008.66 1008.94 1009.21 1009.45 1009.65 1009.83 1010.02 1010.28 1010.63 1011.09 1011.67 1012.32 1013.02 1013.69 1014.29 1014.79 1015.14 1015.37 1015.49 1015.55 1015.59 1015.62 1015.69 1015.79 1015.91 1016.03
1008.29 1007.83 1007.47 1007.24 1007.14 1007.15 1007.24 1007.34 1007.44 1007.49 1007.51 1007.50 1007.50 1007.54 1007.65 1007.83 1008.08 1008.37 1008.66 1008.91 1009.12 1009.29 1009.43 1009.59 1009.81 1010.14 1010.60 1011.18 1011.87 1012.61 1013.34 1014.02 1014.59 1015.03 1015.34 1015.54 1015.67 1015.75 1015.83 1015.92 1016.02 1016.12 1016.21
1007.95 1007.46 1007.05 1006.76 1006.61 1006.58 1006.63 1006.72 1006.81 1006.88 1006.93 1006.97 1007.02 1007.12 1007.28 1007.50 1007.77 1008.06 1008.34 1008.57 1008.75 1008.89 1009.00 1009.13 1009.34 1009.66 1010.13 1010.73 1011.44 1012.22 1013.01 1013.75 1014.39 1014.91 1015.29 1015.57 1015.77 1015.92 1016.05 1016.18 1016.30 1016.41 1016.49
Thickness
5792 5793 5790 5786 5783 5781 5779 5778 5777 5775 5773 5770 5768 5766 5763 5761 5759 5757 5754 5752 5751 5749 5748 5746 5744 5744 5743 5742 5741 5740 5739 5738 5737 5736 5735 5735 5735 5735 5735 5734 5734 5734 5734
5797 5793 5789 5785 5782 5779 5777 5775 5774 5772 5770 5767 5765 5763 5760 5758 5756 5754 5752 5750 5748 5746 5745 5743 5742 5741 5740 5739 5738 5738 5737 5736 5735 5734 5733 5733 5733 5733 5733 5732 5732 5732 5732
5796 5792 5787 5784 5780 5777 5774 5773 5771 5768 5766 5764 5762 5760 5758 5755 5753 5751 5749 5747 5745 5743 5742 5740 5739 5738 5737 5736 5735 5735 5734 5733 5732 5731 5731 5730 5730 5730 5730 5730 5730 5729 5729
5793 5789 5785 5782 5778 5775 5772 5770 5768 5766 5763 5761 5759 5757 5755 5752 5750 5748 5746 5745 5743 5741 5739 5738 5736 5735 5734 5733 5733 5732 5731 5731 5730 5729 5728 5728 5727 5727 5727 5727 5727 5727 5727
5790 5786 5782 5779 5776 5773 5770 5767 5765 5762 5760 5758 5756 5753 5751 5749 5747 5745 5743 5742 5740 5738 5737 5735 5734 5733 5731 5730 5730 5729 5729 5729 5728 5727 5726 5725 5724 5724 5724 5724 5725 5724 5724
5786 5783 5779 5776 5772 5769 5766 5764 5762 5760 5757 5755 5753 5750 5748 5746 5744 5742 5740 5738 5737 5735 5734 5733 5732 5730 5729 5728 5727 5727 5726 5726 5725 5724 5723 5723 5722 5722 5722 5722 5722 5722 5721
5781 5779 5776 5772 5769 5766 5763 5760 5759 5757 5755 5753 5750 5748 5745 5743 5742 5739 5738 5736 5734 5732 5731 5730 5729 5728 5726 5725 5725 5724 5723 5723 5723 5722 5721 5720 5720 5720 5720 5720 5720 5720 5720
5777 5774 5771 5768 5765 5762 5760 5758 5756 5754 5752 5750 5747 5745 5743 5740 5739 5737 5735 5733 5731 5730 5728 5727 5726 5725 5724 5723 5722 5721 5721 5721 5720 5719 5718 5718 5718 5717 5718 5718 5718 5718 5718
5773 5770 5767 5764 5762 5760 5757 5755 5753 5751 5749 5747 5745 5742 5740 5737 5735 5733 5731 5730 5729 5727 5726 5725 5724 5723 5722 5721 5720 5719 5718 5718 5717 5717 5716 5716 5716 5715 5715 5716 5716 5715 5715
5767 5764 5762 5760 5757 5755 5753 5751 5749 5747 5745 5743 5741 5739 5737 5735 5732 5730 5728 5727 5726 5724 5723 5723 5722 5721 5720 5718 5717 5716 5716 5715 5714 5714 5714 5714 5714 5714 5714 5713 5713 5713 5712
5761 5759 5757 5755 5753 5751 5749 5747 5746 5743 5741 5739 5737 5735 5733 5731 5729 5727 5725 5724 5723 5722 5721 5720 5719 5718 5717 5716 5715 5714 5713 5712 5711 5711 5711 5711 5711 5711 5712 5711 5711 5710 5710
5755 5754 5753 5751 5749 5747 5746 5744 5742 5739 5738 5735 5733 5731 5729 5727 5725 5723 5722 5721 5720 5719 5717 5717 5716 5715 5714 5713 5712 5711 5710 5709 5708 5708 5708 5709 5709 5709 5709 5709 5709 5709 5708
5753 5752 5750 5748 5745 5743 5741 5739 5737 5735 5733 5731 5729 5727 5724 5722 5721 5719 5718 5717 5716 5715 5714 5713 5712 5711 5711 5709 5708 5708 5707 5706 5705 5705 5706 5706 5706 5706 5707 5707 5707 5707 5707
5748 5747 5745 5743 5741 5739 5736 5735 5733 5730 5728 5726 5725 5723 5720 5718 5716 5715 5714 5713 5712 5710 5710 5708 5708 5707 5706 5705 5704 5704 5703 5703 5702 5702 5703 5703 5704 5704 5704 5705 5705 5705 5705
5742 5741 5740 5739 5736 5734 5732 5729 5728 5726 5724 5722 5721 5719 5716 5713 5711 5710 5709 5708 5708 5707 5706 5704 5704 5703 5702 5701 5701 5700 5699 5699 5699 5699 5699 5700 5700 5701 5701 5702 5702 5702 5702
5737 5736 5735 5733 5731 5728 5726 5723 5721 5719 5718 5717 5715 5713 5711 5709 5706 5705 5703 5703 5703 5703 5702 5700 5699 5698 5697 5696 5696 5696 5696 5696 5696 5696 5696 5696 5697 5698 5698 5698 5698 5699 5699
5733 5732 5731 5729 5726 5723 5720 5718 5715 5713 5712 5711 5709 5708 5706 5704 5702 5700 5699 5699 5698 5697 5697 5696 5694 5693 5692 5691 5691 5691 5691 5692 5692 5692 5692 5693 5693 5694 5694 5694 5694 5695 5696
5728 5726 5724 5724 5721 5717 5715 5712 5711 5708 5706 5704 5702 5701 5700 5698 5697 5695 5695 5694 5693 5692 5691 5690 5689 5687 5686 5685 5686 5686 5687 5687 5688 5688 5689 5689 5690 5690 5690 5690 5691 5691 5692
5724 5721 5719 5717 5714 5712 5709 5707 5705 5703 5699 5697 5696 5694 5693 5692 5691 5690 5690 5689 5688 5687 5686 5685 5684 5682 5680 5680 5680 5681 5682 5683 5683 5684 5684 5685 5685 5686 5686 5686 5686 5687 5687
5719 5716 5713 5710 5708 5706 5703 5701 5698 5696 5694 5692 5690 5688 5687 5686 5685 5685 5684 5684 5683 5682 5681 5680 5678 5677 5676 5675 5676 5676 5676 5677 5678 5678 5679 5680 5681 5681 5681 5681 5681 5682 5683
5713 5710 5707 5705 5702 5699 5696 5693 5690 5688 5687 5686 5685 5683 5682 5682 5681 5680 5679 5679 5678 5677 5676 5675 5674 5671 5670 5669 5667 5667 5669 5671 5672 5673 5674 5675 5675 5676 5676 5675 5676 5677 5678
5708 5706 5703 5699 5696 5694 5691 5688 5685 5683 5682 5681 5679 5678 5677 5677 5676 5676 5674 5674 5673 5672 5671 5670 5668 5666 5665 5664 5661 5658 5659 5661 5666 5669 5669 5669 5670 5670 5670 5671 5671 5672 5673
5703 5701 5699 5694 5691 5688 5685 5681 5678 5676 5674 5673 5672 5672 5672 5671 5670 5670 5669 5669 5668 5667 5666 5665 5664 5662 5660 5658 5657 5654 5652 5654 5657 5661 5663 5664 5664 5663 5664 5666 5666 5667 5668
5699 5696 5692 5688 5685 5682 5678 5674 5671 5668 5665 5666 5665 5665 5665 5665 5664 5664 5663 5663 5663 5662 5661 5660 5660 5658 5657 5654 5653 5652 5652 5652 5651 5652 5655 5657 5657 5657 5658 5660 5661 5661 5662
5694 5691 5687 5683 5679 5676 5672 5668 5665 5662 5660 5659 5658 5658 5658 5658 5658 5659 5658 5658 5658 5657 5656 5656 5655 5655 5653 5651 5649 5648 5647 5645 5646 5645 5647 5649 5650 5652 5653 5654 5654 5655 5656
5689 5685 5682 5677 5674 5671 5667 5664 5660 5657 5654 5652 5652 5651 5651 5651 5652 5653 5653 5653 5653 5653 5653 5652 5652 5652 5651 5648 5646 5645 5644 5642 5641 5641 5641 5642 5643 5645 5646 5648 5648 5649 5650